Regional Weather Roundup
Issued by NWS

Home | Current Version | Previous Version | Graphics & Text | Print | Product List | Glossary On
Versions: 1 2 3 4 5 6 7 8 9 10 11 12 13 14 15 16 17 18 19 20 21 22 23 24 25 26 27 28 29 30 31 32 33 34 35 36 37 38 39 40 41 42 43 44 45 46 47 48 49 50
000
ASUS43 KLOT 231208
RWRIL

ILLINOIS REGIONAL WEATHER ROUNDUP
NATIONAL WEATHER SERVICE CHICAGO/ROMEOVILLE IL
700 AM CDT WED MAY 23 2018

NOTE: "FAIR" INDICATES FEW OR NO CLOUDS BELOW 12,000 FEET WITH NO
SIGNIFICANT WEATHER AND/OR OBSTRUCTIONS TO VISIBILITY.

* THESE STATIONS ARE NOT UNDER NWS QUALITY CONTROL. THEY ALSO MAY NOT
  REPORT WEATHER SUCH AS PRECIPITATION OR FOG.

ILZ001-002-007-009-015-016-024-231300-
NORTHWEST ILLINOIS

CITY           SKY/WX    TMP DP  RH WIND       PRES   REMARKS
MOLINE         FAIR      61  59  93 E3        30.16R
6HR MIN TEMP:  57; 6HR MAX TEMP:  62;

STERLING*      FAIR      58  58 100 MISG        N/A  FOG
SAVANNA*       FAIR      58  58 100 NE3       30.18R FOG
$$

ILZ003-004-008-010-011-017-018-231300-
NORTH CENTRAL ILLINOIS

CITY           SKY/WX    TMP DP  RH WIND       PRES   REMARKS
ROCKFORD       PTSUNNY   54  53  97 CALM      30.20R FOG
6HR MIN TEMP:  51; 6HR MAX TEMP:  55;

FREEPORT*      FOG       53  53 100 CALM      30.20R VSB 1/4
ROCHELLE*        N/A     55  55 100 CALM      30.19R FOG
DE KALB*       FAIR      53  53 100 SW3       30.20R FOG
PERU*          FAIR      61  58  89 CALM      30.18S FOG
$$

ILZ005-006-012>014-019>023-231300-
NORTHEAST ILLINOIS

CITY           SKY/WX    TMP DP  RH WIND       PRES   REMARKS
CHICAGO-OHARE  PTSUNNY   56  52  86 SW5       30.18R FOG
6HR MIN TEMP:  52; 6HR MAX TEMP:  56;

CHICAGO-MIDWAY PTSUNNY   57  54  89 CALM      30.18R FOG
6HR MIN TEMP:  51; 6HR MAX TEMP:  57;

AURORA         FAIR      54  54 100 CALM      30.18R FOG
6HR MIN TEMP:  50; 6HR MAX TEMP:  57;

LANSING*       FAIR      53  53 100 CALM      30.19R FOG
JOLIET*          N/A     54  54 100 CALM      30.18S FOG
WAUKEGAN       FAIR      56  56 100 CALM      30.18R FOG
6HR MIN TEMP:  46; 6HR MAX TEMP:  56;

DUPAGE AIRPORT FAIR      56  56 100 CALM      30.18R FOG
6HR MIN TEMP:  48; 6HR MAX TEMP:  56;

KANKAKEE*      FAIR      54  54  97 CALM      30.19R FOG
WHEELING       FAIR      56  54  93 CALM      30.20R
6HR MIN TEMP:  52; 6HR MAX TEMP:  56;

MORRIS*        FOG       55  55  98 CALM      30.18R VSB 1
ROMEOVILLE*    FAIR      54  54 100 CALM      30.19R FOG
NORTHERLY ISL    N/A     57  52  83 W5          N/A
$$

LMZ740>746-231300-
SOUTHERN LAKE MICHIGAN

STATION/POSITION SKY/WX   TEMP    WIND        PRES    VSBY  WAVE
                          AIR SEA DIR/SP/G                  HT/PER
                          (F)     (DEG/KT/KT) (MB)    (MI)  (FT/S)
SOUTHERN BUOY              41 39  170/  6/  6 1022.7R         0
WILMETTE HARBOR            51 48  240/  4/  4   N/A           0
HARRISON CRIB              56     280/  4/  4   N/A
BURNHAM HARBOR             58     250/  3/  5   N/A
CALUMET HARBOR             55      CALM  /  3 1021.6R
BURNS HARBOR               52        CALM     1022.4R
MICHIGAN CITY              49      CALM  /  1   N/A
MICHIGAN CITY 6N           50 54     CALM       N/A           0
ST. JOSEPH                 49 53  320/  2/  2 1022.9          0
$$

ILZ025>027-034>036-040-047-049-050-058-095>099-231300-
WEST-CENTRAL ILLINOIS

CITY           SKY/WX    TMP DP  RH WIND       PRES   REMARKS
QUINCY         MOSUNNY   65  60  84 E8        30.13R
GALESBURG*     CLOUDY    63  60  90 SE3       30.17R FOG
MACOMB*        PTSUNNY   62  60  95 SE5       30.18R FOG
JACKSONVILLE*  SUNNY     64  60  87 E7        30.15R
PITTSFIELD*    SUNNY     65  63  91 CALM      30.15R
$$

ILZ028>032-037-038-041>044-048-051>054-059>061-231300-
CENTRAL ILLINOIS

CITY           SKY/WX    TMP DP  RH WIND       PRES   REMARKS
PONTIAC        FAIR      59  58  98 CALM      30.19R FOG
BLOOMINGTON    FAIR      58  54  86 CALM      30.18R
DECATUR        FAIR      61  58  90 E6        30.16R
PEORIA         FAIR      62  58  86 CALM      30.17R
6HR MIN TEMP:  59; 6HR MAX TEMP:  63;

LACON*         FAIR      58  57  96 CALM      30.17R FOG
LINCOLN*       FAIR      62  59  91 NE3       30.17R
SPRINGFIELD    FAIR      64  61  90 CALM      30.16R
6HR MIN TEMP:  61; 6HR MAX TEMP:  66;

TAYLORVILLE    FAIR      64  59  85 E3        30.16R
6HR MIN TEMP:  61; 6HR MAX TEMP:  68;

$$

ILZ033-039-045-046-055>057-062-063-231300-
EAST-CENTRAL ILLINOIS

CITY           SKY/WX    TMP DP  RH WIND       PRES   REMARKS
CHAMPAIGN      FAIR      61  55  81 NE6       30.16R
DANVILLE*      FAIR      57  55  91 CALM      30.15R FOG
RANTOUL*       FAIR      61  56  84 NE7       30.17R
MATTOON        FAIR      61  59  93 NE6       30.15R FOG
PARIS*         FAIR      59  57  92 N6        30.16R
$$

ILZ079-100>102-231300-
SOUTHWEST ILLINOIS

CITY           SKY/WX    TMP DP  RH WIND       PRES   REMARKS
ALTON          SUNNY     64  63  94 E5        30.14R
BELLEVILLE     SUNNY     67  61  80 NE3       30.12R
CAHOKIA*       SUNNY     69  61  75 E3        30.13R
SPARTA*        SUNNY     66  64  92 E3        30.15R
$$

ILZ064>066-069>071-074>076-080>082-084>086-088>090-092>094-231300-
SOUTH-CENTRAL ILLINOIS

CITY           SKY/WX    TMP DP  RH WIND       PRES   REMARKS
CARBONDALE     FAIR      66  64  93 CALM      30.12R
6HR MIN TEMP:  63; 6HR MAX TEMP:  67;

CAIRO*         FAIR      70  66  86 CALM      30.10R
EFFINGHAM*     FAIR      64  62  93 CALM      30.17R
MARION         MOSUNNY   66  64  94 CALM      30.13R
MT. VERNON       N/A     66  61  84 NE5       30.14R
CENTRALIA*     SUNNY     67  62  85 E6        30.13R
SALEM*         FAIR      67  60  79 NE6       30.14R
METROPOLIS*    FAIR      69  65  89 CALM      30.10R
$$

ILZ067-068-072-073-078-083-087-091-231300-
SOUTHEAST ILLINOIS

CITY           SKY/WX    TMP DP  RH WIND       PRES   REMARKS
LAWRENCEVILLE  FAIR      67  60  78 NE6       30.14R
FLORA*         FAIR      65  61  86 N3        30.14R
FAIRFIELD*     FAIR      66  61  85 N3        30.12R
HARRISBURG*    FAIR      67  63  86 N7        30.12R
ROBINSON*      FAIR      63  61  94 N3        30.15R
CARMI*         FAIR      68  63  83 N6        30.12R
$$

ABBREVIATIONS USED IN REMARKS
   TC - TEMPERATURE IN CELSIUS
  WCI - WIND CHILL INDEX
   HX - HEAT INDEX
  VSB - VISIBILITY
$$




USA.gov is the U.S. government's official web portal to all federal, state and local government web resources and services.